Weather History for KVIH - April, 2013

Change the Weather History Date:

Sunday, April 7, 2013

  Actual Average Record
Temperature  
Mean Temperature 62 °F 53 °F  
Max Temperature 76 °F 64 °F 82 °F (1954)
Min Temperature 47 °F 41 °F 20 °F (2007)
Degree Days  
Heating Degree Days 3 13  
Month to date heating degree days 116 96  
Since 1 July heating degree days 4521 4500  
Cooling Degree Days 0 1  
Month to date cooling degree days 0 1  
Year to date cooling degree days 0 5  
Growing Degree Days 12 (Base 50)    
Moisture  
Dew Point 48 °F    
Average Humidity 60    
Maximum Humidity 84    
Minimum Humidity 35    
Precipitation  
Precipitation 0.11 in 0.14 in 0.95 in (1980)
Month to date precipitation 0.11 0.90  
Year to date precipitation 8.08 8.45  
Sea Level Pressure  
Sea Level Pressure 29.83 in    
Wind  
Wind Speed 9 mph (South)    
Max Wind Speed 23 mph    
Max Gust Speed 29 mph    
Visibility 10 miles    
Events Rain , Thunderstorm    
T = Trace of Precipitation, MM = Missing Value Source: NWS Daily Summary

Daily Weather History Graph

Daily Weather History Graph

Search for Another Location

Airport or City:

Trip Planner

Search our weather history database for the weather conditions in past years. The results will help you decide how hot, cold, wet, or windy it might be!

Date:

Astronomy

Apr. 07, 2013 Rise Set
Actual Time 6:42 AM CDT 7:36 PM CDT
Civil Twilight 6:15 AM CDT 8:02 PM CDT
Nautical Twilight 5:44 AM CDT 8:34 PM CDT
Astronomical Twilight 5:11 AM CDT 9:07 PM CDT
Moon 4:58 AM CDT 5:10 PM CDT
Length of Visible Light 13h 46m
Length of Day
12h 53m
Waning Crescent, 8% of the Moon is Illuminated
Apr 7
Waning Crescent
Apr 10
New
Apr 18
First Quarter
Apr 25
Full
May 2
Last Quarter

Hourly Weather History & Observations

Time (CDT) Temp. Dew Point Humidity Pressure Visibility Wind Dir Wind Speed Gust Speed Precip Events Conditions
12:53 AM 55.0 °F 44.1 °F 67% 29.81 in 10.0 mi South 8.1 mph - N/A   Scattered Clouds
1:53 AM 55.9 °F 44.1 °F 64% 29.83 in 10.0 mi SW 4.6 mph - N/A   Overcast
2:53 AM 52.0 °F 42.1 °F 69% 29.83 in 10.0 mi South 8.1 mph - N/A   Clear
3:53 AM 51.1 °F 43.0 °F 74% 29.83 in 10.0 mi South 9.2 mph - N/A   Clear
4:53 AM 51.1 °F 43.0 °F 74% 29.84 in 10.0 mi SSW 9.2 mph - N/A   Scattered Clouds
5:53 AM 48.9 °F 42.1 °F 77% 29.85 in 10.0 mi SW 5.8 mph - N/A   Clear
6:53 AM 50.0 °F 43.0 °F 77% 29.87 in 10.0 mi SSW 8.1 mph - N/A   Clear
7:53 AM 54.0 °F 46.0 °F 75% 29.88 in 10.0 mi SSW 8.1 mph - N/A   Clear
8:53 AM 60.1 °F 48.9 °F 67% 29.89 in 10.0 mi SW 8.1 mph - N/A   Clear
9:53 AM 64.0 °F 48.9 °F 58% 29.89 in 10.0 mi SW 5.8 mph - N/A   Clear
10:53 AM 68.0 °F 50.0 °F 52% 29.89 in 10.0 mi South 3.5 mph - N/A   Clear
11:53 AM 71.1 °F 50.0 °F 47% 29.89 in 10.0 mi South 8.1 mph - N/A   Clear
12:53 PM 73.0 °F 46.9 °F 39% 29.87 in 10.0 mi SSE 8.1 mph - N/A   Clear
1:53 PM 73.0 °F 46.0 °F 38% 29.85 in 10.0 mi Variable 3.5 mph - N/A   Clear
2:53 PM 73.9 °F 44.1 °F 34% 29.83 in 10.0 mi SSE 8.1 mph - N/A   Partly Cloudy
3:53 PM 75.0 °F 46.0 °F 36% 29.80 in 10.0 mi SSE 10.4 mph - N/A   Mostly Cloudy
4:53 PM 73.9 °F 46.9 °F 38% 29.79 in 10.0 mi South 15.0 mph 18.4 mph N/A   Mostly Cloudy
5:53 PM 72.0 °F 48.0 °F 43% 29.78 in 10.0 mi SSE 6.9 mph - N/A   Scattered Clouds
6:53 PM 69.1 °F 50.0 °F 51% 29.77 in 10.0 mi SSE 5.8 mph - N/A   Overcast
7:53 PM 69.1 °F 48.9 °F 49% 29.78 in 10.0 mi SE 4.6 mph - N/A   Overcast
8:53 PM 68.0 °F 48.9 °F 50% 29.78 in 10.0 mi SSE 8.1 mph - N/A   Overcast
9:32 PM 64.4 °F 55.4 °F 73% 29.82 in 10.0 mi South 12.7 mph - 0.01 in Rain , Thunderstorm Light Rain
9:45 PM 64.4 °F 55.4 °F 73% 29.83 in 8.0 mi SSW 9.2 mph - 0.03 in Rain , Thunderstorm Light Rain
9:53 PM 63.0 °F 57.0 °F 81% 29.82 in 7.0 mi SSW 6.9 mph - 0.04 in Rain , Thunderstorm Light Rain
10:24 PM 62.6 °F 57.2 °F 82% 29.78 in 7.0 mi SE 16.1 mph 20.7 mph 0.07 in Rain Light Rain
10:53 PM 61.0 °F 57.0 °F 87% 29.78 in 10.0 mi South 21.9 mph 27.6 mph 0.07 in   Clear
11:53 PM 61.0 °F 55.9 °F 83% 29.79 in 10.0 mi South 15.0 mph 23.0 mph N/A   Clear